Theta_e
321 317 322 328 328 327 324 324 328 325 325 324 323 323 323 323 323 322 324 323 323 324 324 325 327 328 329 329 329 330 334 335 337 337 337 337 339 341 341 340 341 341 341
317 319 323 328 327 326 325 324 326 325 323 325 323 323 322 323 322 323 323 323 323 322 323 324 325 327 329 327 328 327 328 330 331 333 336 336 336 335 337 339 338 338 338
319 321 324 325 326 326 326 323 324 326 325 324 323 323 323 323 323 323 323 323 323 323 322 323 325 325 326 326 325 326 322 322 320 324 329 333 334 334 335 333 336 338 336
319 318 315 325 328 326 328 326 324 325 324 323 322 324 323 323 323 322 322 323 323 322 322 322 324 323 324 326 325 325 325 316 312 316 322 324 325 326 323 323 328 331 336
317 312 328 329 327 326 327 327 325 324 323 324 323 324 323 323 322 321 323 320 321 320 320 319 322 324 324 325 324 324 318 314 316 317 315 318 322 323 324 322 320 319 324
312 316 330 328 324 324 325 323 324 324 324 322 323 319 323 320 318 319 318 319 317 317 318 316 316 318 319 320 324 320 313 314 316 317 318 322 328 326 321 323 320 320 315
311 315 329 325 325 323 324 324 325 321 324 321 322 324 322 316 315 308 307 307 307 309 309 312 311 314 314 315 314 313 310 310 312 312 316 319 325 322 324 321 319 318 313
310 315 323 325 324 323 324 326 324 322 321 320 318 315 307 305 303 303 303 303 303 303 303 303 305 307 308 308 307 308 307 305 305 306 308 317 323 318 317 316 316 315 308
312 314 320 326 326 323 325 323 322 321 317 314 314 312 305 302 302 303 303 303 303 303 303 303 303 303 304 304 304 305 305 304 303 303 305 304 305 307 308 305 306 306 307
316 314 314 320 325 324 322 323 324 318 315 306 306 304 303 302 302 302 302 302 303 303 303 303 303 303 303 304 304 304 305 304 304 304 304 304 304 304 305 306 306 306 306
319 317 317 315 315 319 318 319 325 318 312 304 303 303 303 303 303 303 302 302 302 303 303 304 303 303 304 304 305 305 306 305 305 304 304 305 305 305 305 305 306 306 306
318 317 316 317 312 313 315 317 319 315 310 305 304 303 303 303 304 303 303 303 303 303 303 304 304 305 305 305 305 306 306 306 305 305 305 305 305 306 306 306 307 307 308
316 316 316 316 314 310 311 312 311 309 307 305 303 303 303 304 304 303 303 303 303 303 304 304 305 305 306 306 306 307 307 307 307 307 307 307 306 306 307 307 308 308 309
316 316 315 315 317 312 309 309 309 307 307 305 304 303 304 306 305 304 304 304 304 305 305 305 306 306 306 307 308 308 308 308 308 308 308 308 307 307 307 308 309 309 310
316 316 315 314 315 315 315 309 308 307 306 305 304 304 304 307 307 305 305 305 305 305 306 307 307 307 308 308 309 309 309 309 309 309 309 308 308 308 308 309 309 310 310
317 316 316 315 314 314 316 315 312 311 311 306 305 306 306 307 307 306 306 306 305 306 306 307 308 308 309 309 309 309 309 310 310 309 309 309 308 308 309 309 310 310 310
320 318 317 316 315 314 315 316 315 314 313 309 309 308 308 307 306 306 305 306 306 306 307 308 308 309 309 309 309 310 310 311 310 310 310 309 309 309 310 310 311 311 311
320 320 319 318 316 316 314 315 315 314 313 311 310 309 308 307 306 305 305 307 307 307 307 308 308 308 309 310 310 311 311 311 311 311 310 310 309 310 310 311 311 311 311
321 321 320 319 318 317 316 315 315 315 314 312 311 310 310 308 307 305 305 307 308 308 308 308 308 309 310 310 311 311 312 312 312 311 310 310 309 310 310 311 311 311 310
322 322 321 321 320 319 318 317 317 316 315 313 311 311 311 311 309 307 305 307 308 308 309 309 309 309 310 310 311 311 312 312 312 311 310 310 309 310 310 311 311 311 310
322 322 322 321 321 320 319 318 318 317 315 313 311 311 311 311 310 309 307 307 308 308 308 309 309 309 310 310 310 311 312 312 312 310 311 311 310 309 310 311 311 310 309
322 323 323 322 321 320 319 319 318 317 317 314 312 312 312 311 311 310 309 308 308 307 308 308 309 310 310 310 310 311 314 314 312 311 310 311 311 309 310 311 311 310 309
319 322 323 323 322 321 320 319 319 318 318 316 313 312 311 311 310 310 309 310 310 309 308 308 309 310 310 310 311 312 315 314 314 312 312 311 311 311 309 310 311 310 309
318 321 323 323 322 321 320 320 319 318 318 317 315 314 312 311 311 311 310 310 311 311 310 308 308 309 309 310 311 311 313 315 317 315 312 311 312 312 311 310 311 310 309
318 319 321 322 323 321 320 320 319 319 318 318 317 316 315 313 312 312 312 311 311 311 311 310 309 308 309 310 310 311 311 312 313 316 316 315 313 313 312 312 311 311 310
316 317 318 319 320 320 320 319 319 319 318 318 317 317 316 315 314 313 313 313 312 312 311 311 310 309 308 309 310 310 311 312 314 314 314 317 316 315 314 313 312 312 311
Wind_Speed
16 13 24 16 15 13 11 13 12 7 10 8 11 9 12 12 14 13 13 14 13 13 13 13 13 13 12 10 9 8 12 13 14 15 13 16 17 19 20 19 19 22 21
15 16 22 18 13 10 13 14 10 9 7 10 8 11 10 11 12 14 12 13 11 13 13 15 18 20 17 15 13 13 12 12 11 10 9 8 11 13 13 12 14 16 14
15 17 21 19 14 11 11 9 10 13 10 9 9 10 12 11 11 12 12 13 14 13 15 16 19 16 15 16 12 14 10 11 11 9 8 8 8 7 8 9 10 11 11
14 16 18 16 15 13 12 13 12 12 9 9 9 9 12 10 11 10 11 12 12 12 14 15 16 15 15 18 14 16 16 17 10 11 10 9 11 9 5 7 9 10 11
14 18 19 19 16 15 15 13 12 11 10 11 11 9 9 10 11 10 10 11 12 12 12 15 14 14 15 19 13 14 15 15 14 15 15 17 16 16 17 15 12 9 11
16 22 21 18 16 16 13 13 12 11 11 9 9 9 8 8 9 10 10 10 11 11 11 13 14 14 14 14 18 14 16 15 14 18 20 19 19 17 17 17 17 16 14
18 22 20 16 16 15 13 14 13 11 11 10 12 9 9 8 8 9 9 10 10 11 11 11 13 13 11 9 14 15 16 14 14 15 18 18 14 15 18 14 16 15 15
16 21 20 17 17 16 15 14 13 11 11 11 10 9 8 8 9 10 10 11 11 11 12 12 11 10 10 10 13 14 15 14 13 13 12 16 15 14 14 14 14 14 14
16 18 18 19 17 15 15 14 13 12 11 10 8 8 8 8 9 10 10 10 10 10 11 12 11 10 10 11 11 12 13 12 12 12 12 13 13 13 13 14 14 14 14
16 16 16 18 19 18 16 15 14 12 9 9 9 8 8 8 9 9 10 9 8 8 9 10 10 10 10 11 10 11 11 10 10 11 11 11 11 12 12 12 13 13 13
17 16 16 17 17 18 16 15 15 12 11 9 8 8 8 7 7 8 8 8 7 7 7 7 9 9 8 9 8 9 10 9 8 9 9 10 9 9 9 10 10 11 11
21 19 16 14 16 17 16 16 16 14 12 9 8 8 8 8 7 7 7 7 6 5 5 6 7 7 7 7 7 7 7 7 7 7 8 8 7 8 7 7 8 9 9
19 19 18 15 16 17 17 17 16 14 12 10 10 9 10 8 7 6 6 6 5 5 5 4 5 5 6 6 6 6 6 6 6 6 6 6 6 6 6 6 7 8 8
21 19 17 16 16 16 16 17 15 14 12 11 10 11 10 9 8 6 6 6 5 5 5 5 5 6 6 6 6 6 6 5 5 5 5 6 6 6 7 7 7 8 8
21 20 19 18 18 16 15 16 16 15 13 11 12 13 12 10 9 8 6 7 6 6 6 6 6 6 7 7 7 7 6 6 6 5 5 6 7 8 8 8 8 7 6
20 21 19 20 19 18 17 16 16 14 11 13 13 13 12 11 10 9 8 8 7 6 6 6 6 7 8 7 7 7 8 7 7 7 6 7 8 9 9 8 7 6 5
22 19 20 20 19 20 19 16 16 14 13 12 13 14 14 13 12 10 9 8 8 7 7 7 7 7 7 8 8 8 8 7 8 8 8 8 9 9 8 8 6 5 4
24 24 20 20 20 20 20 18 17 15 14 12 13 14 14 13 12 12 11 10 10 8 8 8 8 8 8 8 9 9 9 9 10 9 9 9 10 9 8 7 6 4 3
27 25 23 22 21 19 19 19 17 16 15 14 15 15 13 12 11 12 13 11 12 10 9 9 9 10 9 9 10 11 11 11 12 13 11 11 11 11 9 7 6 6 5
29 27 25 24 22 20 18 19 19 20 19 19 17 16 13 12 13 14 15 14 14 12 11 11 11 11 11 11 12 13 13 13 14 14 14 12 13 12 10 8 7 7 6
33 30 28 27 26 25 24 22 22 23 22 22 19 16 15 15 15 15 15 16 16 14 12 12 13 13 13 12 13 13 14 14 14 14 15 14 13 14 11 9 8 9 8
34 32 30 29 29 27 26 24 22 19 20 22 21 20 18 18 18 18 17 17 18 17 16 15 15 14 15 13 12 11 7 12 16 17 18 16 15 17 15 12 11 10 10
26 33 30 27 28 28 28 27 25 23 22 22 23 23 21 19 19 19 19 19 19 20 18 17 17 17 16 15 14 11 6 5 7 17 19 19 17 18 18 16 14 12 12
20 28 32 31 27 27 28 28 27 24 22 19 19 19 20 21 21 20 21 21 21 21 21 20 20 20 19 18 17 17 18 11 4 4 14 19 20 20 20 20 17 15 14
9 17 26 29 30 29 27 26 27 26 24 22 20 19 19 20 22 22 22 22 23 23 23 22 23 23 22 21 21 20 19 21 22 15 11 10 21 21 21 22 21 19 17
9 7 14 21 26 27 28 27 24 22 22 23 22 21 19 19 20 22 22 23 23 24 24 24 24 25 25 25 23 24 23 23 19 21 23 20 17 18 22 24 25 22 20
Wind_Direction
169 161 156 158 179 192 170 150 137 144 118 111 98 95 90 98 99 101 88 91 88 91 104 128 131 123 109 106 88 119 135 124 118 107 110 115 116 108 106 105 107 104 101
160 162 163 167 182 147 164 165 137 119 137 110 108 100 90 96 100 104 97 88 95 89 91 106 102 104 106 102 93 87 107 130 129 128 135 122 124 121 120 120 125 118 127
167 167 168 173 175 158 147 162 166 125 133 139 125 108 101 99 108 108 100 97 94 92 86 98 104 111 110 96 93 93 98 108 132 143 145 128 115 143 150 150 147 141 148
168 171 165 162 175 160 151 152 141 152 150 130 114 120 107 108 100 103 99 96 93 85 89 99 108 106 96 94 96 90 93 88 115 138 139 125 115 92 136 170 180 179 178
175 158 146 169 171 168 163 160 158 152 144 134 124 119 119 113 109 105 102 97 93 93 92 102 109 99 93 93 100 96 98 93 97 117 118 110 97 95 92 95 101 157 185
170 161 159 166 168 171 171 168 164 150 146 150 138 131 120 124 122 119 111 105 102 100 98 100 106 109 110 106 106 97 102 98 104 104 103 104 95 95 91 89 95 97 108
172 172 164 176 176 169 186 167 163 163 155 155 150 145 150 135 124 117 113 110 106 107 107 113 118 119 115 105 108 103 99 105 104 102 105 102 99 101 97 91 92 94 98
181 178 176 176 178 178 172 175 170 173 169 168 166 157 148 137 121 109 103 98 97 98 109 112 113 126 122 111 111 112 108 107 103 99 101 108 106 97 102 100 100 98 98
185 186 182 177 178 185 181 186 184 179 181 167 165 160 147 130 119 113 105 99 97 101 104 109 114 120 118 116 107 108 106 104 102 100 97 98 100 102 101 101 101 100 95
187 195 195 189 182 195 188 199 186 186 187 182 169 157 148 138 126 116 112 107 107 108 113 121 122 122 123 121 118 118 113 105 103 99 97 93 93 96 95 98 96 93 91
199 203 202 203 204 200 197 198 200 197 196 184 175 172 163 147 137 131 127 127 125 123 129 128 125 123 126 129 123 121 117 117 115 108 102 99 95 94 96 92 96 97 94
204 204 209 214 211 211 206 203 207 201 202 197 191 190 174 164 159 150 144 146 144 146 150 144 146 136 129 132 128 124 126 124 120 115 111 107 104 99 99 99 103 102 104
210 211 212 216 219 218 216 212 214 213 211 202 200 199 197 188 178 167 162 159 156 167 164 161 158 162 158 152 152 145 146 138 134 134 124 123 118 119 121 126 126 123 117
217 220 218 217 222 222 221 225 224 223 218 211 210 211 208 204 201 196 183 182 182 188 191 189 189 186 180 172 171 162 161 157 153 154 149 147 144 141 142 143 143 134 119
225 223 221 223 223 222 224 227 227 227 226 223 223 221 215 216 213 207 201 201 201 199 201 201 205 197 193 188 185 181 183 179 178 177 171 171 165 162 157 158 146 125 110
229 227 226 226 227 227 225 228 225 225 231 228 225 227 226 226 224 217 218 216 218 208 208 209 208 206 204 206 204 202 202 201 197 192 188 186 177 174 167 162 144 131 114
234 231 230 231 232 231 232 229 229 228 234 238 234 234 234 234 236 233 228 229 223 214 213 214 217 216 223 221 219 218 212 212 208 204 199 197 188 182 177 162 148 139 122
238 237 233 232 235 237 237 235 235 236 241 246 243 239 237 238 239 237 234 233 230 223 222 223 229 231 231 230 232 229 227 227 221 210 207 205 197 187 184 167 163 155 151
242 241 237 234 238 240 243 243 246 248 252 252 246 242 241 240 247 246 240 234 234 227 226 229 235 236 240 242 241 240 238 235 228 215 211 212 206 196 188 178 177 177 182
241 241 242 241 242 240 243 245 247 250 253 251 247 246 246 250 249 249 240 235 237 233 232 238 242 244 246 250 251 251 247 240 232 221 212 211 212 204 198 196 191 193 196
243 241 240 239 240 237 237 238 242 248 253 254 254 252 250 249 251 252 245 240 241 241 242 243 244 245 248 253 261 261 256 248 236 224 214 212 215 212 208 205 200 204 205
247 241 240 241 241 242 241 245 249 263 267 267 263 257 255 252 252 253 250 247 248 249 246 245 246 249 252 255 259 268 279 251 239 231 225 223 224 221 216 215 213 215 214
242 239 241 247 245 244 243 244 247 251 258 259 258 256 255 258 258 258 255 251 250 252 250 249 250 252 256 256 254 245 258 256 269 239 236 231 233 229 222 222 221 222 221
242 240 242 246 248 246 244 247 250 258 267 283 288 280 270 266 264 262 259 254 252 253 254 251 252 252 254 253 253 247 243 261 297 281 242 234 238 236 231 229 229 227 227
251 240 245 247 248 248 248 253 255 259 271 278 283 283 276 269 265 263 261 257 254 254 255 255 252 251 254 255 252 253 253 255 256 266 277 257 244 244 242 237 235 232 232
36 235 236 247 248 248 250 253 263 273 282 282 286 290 290 283 273 267 265 263 260 258 257 259 259 256 254 254 253 252 251 251 257 259 263 268 272 258 249 243 240 238 236